,,Stat6,,Stat2,,Stat8,,Stat9,,Stat10,,Wind1,,Wind1,
time,status,PA1M_AVG,status,PR1M_SUM,status,RH1M_AVG,status,SR1M_AVG,status,TA1M_AVG,status,W1dAve1m,status,W1sAve1m,
2004-12-23, 00:00:00,VALID,917.333,VALID,0,VALID,97.0285,VALID,-0.0509425,VALID,19.7353,VALID,102,VALID,0.832812,
2004-12-23, 00:01:00,VALID,917.343,VALID,0,VALID,97.0819,VALID,-0.0169808,VALID,19.7355,VALID,103,VALID,0.998728,
2004-12-23, 00:02:00,VALID,917.337,VALID,0,VALID,97.1722,VALID,-0.0509425,VALID,19.7057,VALID,109,VALID,1.42541,
2004-12-23, 00:03:00,VALID,917.344,VALID,0,VALID,97.1773,VALID,0.0509425,VALID,19.6893,VALID,91,VALID,1.06559,
2004-12-23, 00:04:00,VALID,917.34,VALID,0,VALID,97.279,VALID,0.0169808,VALID,19.6592,VALID,83,VALID,1.18229,
2004-12-23, 00:05:00,VALID,917.349,VALID,0,VALID,97.3083,VALID,0.0339617,VALID,19.6764,VALID,104,VALID,1.4831,
2004-12-23, 00:06:00,VALID,917.323,VALID,0,VALID,97.265,VALID,0.0679233,VALID,19.6655,VALID,117,VALID,0.787997,
2004-12-23, 00:07:00,VALID,917.313,VALID,0,VALID,97.2701,VALID,0.0339617,VALID,19.6759,VALID,102,VALID,0.988917,
2004-12-23, 00:08:00,VALID,917.304,VALID,0,VALID,97.3006,VALID,0.0509425,VALID,19.6761,VALID,118,VALID,0.77072,
2004-12-23, 00:09:00,VALID,917.28,VALID,0,VALID,97.3235,VALID,0.0849042,VALID,19.663,VALID,102,VALID,0.566797,
2004-12-23, 00:10:00,VALID,917.266,VALID,0,VALID,97.3744,VALID,0.101885,VALID,19.653,VALID,113,VALID,0.951087,
2004-12-23, 00:11:00,VALID,917.258,VALID,0,VALID,97.4392,VALID,0.0169808,VALID,19.6404,VALID,107,VALID,1.01935,
2004-12-23, 00:12:00,VALID,917.225,VALID,0,VALID,97.5181,VALID,0.0679233,VALID,19.6108,VALID,96,VALID,0.744004,
2004-12-23, 00:13:00,VALID,917.218,VALID,0,VALID,97.5562,VALID,0.0509425,VALID,19.6051,VALID,79,VALID,0.688244,
2004-12-23, 00:14:00,VALID,917.209,VALID,0,VALID,97.6173,VALID,0.0509425,VALID,19.5822,VALID,118,VALID,0.701823,
2004-12-23, 00:15:00,VALID,917.191,VALID,0,VALID,97.6554,VALID,0.0339617,VALID,19.5693,VALID,108,VALID,0.357701,
2004-12-23, 00:16:00,VALID,917.196,VALID,0,VALID,97.733,VALID,0.0849042,VALID,19.5529,VALID,104,VALID,1.02813,
2004-12-23, 00:17:00,VALID,917.203,VALID,0,VALID,97.8131,VALID,0.0849042,VALID,19.5465,VALID,104,VALID,0.865945,
2004-12-23, 00:18:00,VALID,917.198,VALID,0,VALID,97.8271,VALID,0.0169808,VALID,19.5507,VALID,123,VALID,1.0604,
2004-12-23, 00:19:00,VALID,917.206,VALID,0,VALID,97.7724,VALID,-0.0339617,VALID,19.5378,VALID,115,VALID,0.863653,
2004-12-23, 00:20:00,VALID,917.204,VALID,0,VALID,97.8131,VALID,-0.0169808,VALID,19.5517,VALID,113,VALID,0.359715,
2004-12-23, 00:21:00,VALID,917.205,VALID,0,VALID,97.8156,VALID,-0.0509425,VALID,19.5283,VALID,64,VALID,0.500381,
2004-12-23, 00:22:00,VALID,917.208,VALID,0,VALID,97.8029,VALID,-0.0509425,VALID,19.5216,VALID,47,VALID,0.669829,
2004-12-23, 00:23:00,VALID,917.206,VALID,0,VALID,97.8131,VALID,0,VALID,19.5355,VALID,33,VALID,0.677083,
2004-12-23, 00:24:00,VALID,917.209,VALID,0,VALID,97.7775,VALID,-0.0509425,VALID,19.5064,VALID,41,VALID,0.595954,
2004-12-23, 00:25:00,VALID,917.192,VALID,0,VALID,97.8296,VALID,-0.0339617,VALID,19.49,VALID,47,VALID,0.303571,
2004-12-23, 00:26:00,VALID,917.19,VALID,0,VALID,97.9174,VALID,-0.0509425,VALID,19.4501,VALID,41,VALID,0.374112,
2004-12-23, 00:27:00,VALID,917.186,VALID,0,VALID,97.9848,VALID,-0.0169808,VALID,19.4737,VALID,34,VALID,0.437314,
2004-12-23, 00:28:00,VALID,917.183,VALID,0,VALID,98.0089,VALID,-0.0339617,VALID,19.4804,VALID,25,VALID,0.477325,
2004-12-23, 00:29:00,VALID,917.175,VALID,0,VALID,97.9733,VALID,-0.0509425,VALID,19.4734,VALID,20,VALID,0.319949,
2004-12-23, 00:30:00,VALID,917.158,VALID,0,VALID,97.9911,VALID,-0.0339617,VALID,19.4831,VALID,14,VALID,0.402798,
2004-12-23, 00:31:00,VALID,917.15,VALID,0,VALID,98.0255,VALID,-0.0339617,VALID,19.4995,VALID,3,VALID,0.404154,
2004-12-23, 00:32:00,VALID,917.143,VALID,0,VALID,98.0013,VALID,-0.0169808,VALID,19.4808,VALID,296,VALID,0.547991,
2004-12-23, 00:33:00,VALID,917.134,VALID,0,VALID,98.07,VALID,-0.0679233,VALID,19.4513,VALID,292,VALID,0.596528,
2004-12-23, 00:34:00,VALID,917.126,VALID,0,VALID,98.2365,VALID,-0.0509425,VALID,19.416,VALID,284,VALID,0.692578,
2004-12-23, 00:35:00,VALID,917.131,VALID,0,VALID,98.4108,VALID,-0.0679233,VALID,19.3835,VALID,284,VALID,0.297991,
2004-12-23, 00:36:00,VALID,917.109,VALID,0,VALID,98.529,VALID,-0.0509425,VALID,19.3576,VALID,284,VALID,0,
2004-12-23, 00:37:00,VALID,917.105,VALID,0,VALID,98.6511,VALID,-0.0339617,VALID,19.3415,VALID,284,VALID,0.00173611,
2004-12-23, 00:38:00,VALID,917.107,VALID,0,VALID,98.7375,VALID,-0.0679233,VALID,19.3119,VALID,284,VALID,0.189931,
2004-12-23, 00:39:00,VALID,917.095,VALID,0,VALID,98.8253,VALID,-0.0509425,VALID,19.293,VALID,284,VALID,0.144159,
2004-12-23, 00:40:00,VALID,917.069,VALID,0,VALID,98.7058,VALID,-0.0679233,VALID,19.2707,VALID,227,VALID,0.34266,
2004-12-23, 00:41:00,VALID,917.051,VALID,0,VALID,98.7007,VALID,-0.0679233,VALID,19.2188,VALID,119,VALID,0.580078,
2004-12-23, 00:42:00,VALID,917.026,VALID,0,VALID,98.9003,VALID,-0.0509425,VALID,19.1899,VALID,141,VALID,1.05769,
2004-12-23, 00:43:00,VALID,917.01,VALID,0,VALID,99.0834,VALID,-0.0849042,VALID,19.1641,VALID,143,VALID,1.08761,
2004-12-23, 00:44:00,VALID,916.987,VALID,0,VALID,99.1623,VALID,-0.0169808,VALID,19.1417,VALID,131,VALID,0.916295,
2004-12-23, 00:45:00,VALID,916.955,VALID,0,VALID,99.2754,VALID,-0.0679233,VALID,19.1154,VALID,138,VALID,0.970567,
2004-12-23, 00:46:00,VALID,916.929,VALID,0,VALID,99.4369,VALID,-0.0849042,VALID,19.1028,VALID,138,VALID,0.986285,
2004-12-23, 00:47:00,VALID,916.908,VALID,0,VALID,99.4789,VALID,-0.0849042,VALID,19.1154,VALID,124,VALID,0.851563,
2004-12-23, 00:48:00,VALID,916.888,VALID,0,VALID,99.4509,VALID,-0.0679233,VALID,19.106,VALID,124,VALID,0.77439,
2004-12-23, 00:49:00,VALID,916.868,VALID,0,VALID,99.4929,VALID,-0.0679233,VALID,19.1035,VALID,107,VALID,0.888081,
2004-12-23, 00:50:00,VALID,916.846,VALID,0,VALID,99.5399,VALID,-0.101885,VALID,19.1,VALID,119,VALID,0.473214,
2004-12-23, 00:51:00,VALID,916.822,VALID,0,VALID,99.5539,VALID,-0.101885,VALID,19.0903,VALID,116,VALID,0.403963,
2004-12-23, 00:52:00,VALID,916.812,VALID,0,VALID,99.6099,VALID,-0.101885,VALID,19.1069,VALID,125,VALID,0.698661,
2004-12-23, 00:53:00,VALID,916.807,VALID,0,VALID,99.6442,VALID,-0.0849042,VALID,19.1099,VALID,135,VALID,0.707031,
2004-12-23, 00:54:00,VALID,916.798,VALID,0,VALID,99.6111,VALID,-0.0509425,VALID,19.1256,VALID,143,VALID,0.507431,
2004-12-23, 00:55:00,VALID,916.785,VALID,0,VALID,99.6124,VALID,-0.0679233,VALID,19.1422,VALID,154,VALID,0.542629,
2004-12-23, 00:56:00,VALID,916.776,VALID,0,VALID,99.634,VALID,-0.0169808,VALID,19.1678,VALID,162,VALID,0.665206,
2004-12-23, 00:57:00,VALID,916.773,VALID,0,VALID,99.5743,VALID,-0.0849042,VALID,19.174,VALID,171,VALID,0.753018,
2004-12-23, 00:58:00,VALID,916.746,VALID,0,VALID,99.5196,VALID,-0.0679233,VALID,19.1969,VALID,164,VALID,0.579985,
2004-12-23, 00:59:00,VALID,916.736,VALID,0,VALID,99.4535,VALID,-0.0679233,VALID,19.2001,VALID,170,VALID,0.792597,
2004-12-23, 01:00:00,VALID,916.711,VALID,0,VALID,99.4903,VALID,-0.0679233,VALID,19.2195,VALID,166,VALID,0.680043,
2004-12-23, 01:01:00,VALID,916.688,VALID,0,VALID,99.4102,VALID,-0.0849042,VALID,19.2225,VALID,168,VALID,0.432884,
2004-12-23, 01:02:00,VALID,916.679,VALID,0,VALID,99.3212,VALID,-0.0849042,VALID,19.2327,VALID,168,VALID,0.253162,
2004-12-23, 01:03:00,VALID,916.666,VALID,0,VALID,99.2805,VALID,-0.0169808,VALID,19.2444,VALID,168,VALID,0.157885,
2004-12-23, 01:04:00,VALID,916.656,VALID,0,VALID,99.2335,VALID,0.0509425,VALID,19.2369,VALID,168,VALID,0.0942595,
2004-12-23, 01:05:00,VALID,916.658,VALID,0,VALID,99.1724,VALID,0,VALID,19.2406,VALID,168,VALID,0.0675781,
2004-12-23, 01:06:00,VALID,916.658,VALID,0,VALID,99.1318,VALID,0.0169808,VALID,19.2441,VALID,168,VALID,0.0280107,
2004-12-23, 01:07:00,VALID,916.648,VALID,0,VALID,99.0872,VALID,0.0339617,VALID,19.2444,VALID,168,VALID,0.220982,
2004-12-23, 01:08:00,VALID,916.634,VALID,0,VALID,99.0644,VALID,0.0339617,VALID,19.2312,VALID,158,VALID,0.287919,
2004-12-23, 01:09:00,VALID,916.625,VALID,0,VALID,99.0745,VALID,0.0169808,VALID,19.2287,VALID,148,VALID,0.724848,
2004-12-23, 01:10:00,VALID,916.618,VALID,0,VALID,99.1852,VALID,0.0339617,VALID,19.2215,VALID,140,VALID,0.827381,
2004-12-23, 01:11:00,VALID,916.6,VALID,0,VALID,99.147,VALID,0.0169808,VALID,19.2287,VALID,133,VALID,0.518403,
2004-12-23, 01:12:00,VALID,916.584,VALID,0,VALID,99.1457,VALID,0,VALID,19.2151,VALID,129,VALID,0.411156,
2004-12-23, 01:13:00,VALID,916.581,VALID,0,VALID,99.1127,VALID,0,VALID,19.2086,VALID,127,VALID,0.360899,
2004-12-23, 01:14:00,VALID,916.575,VALID,0,VALID,98.9614,VALID,0.0169808,VALID,19.1924,VALID,126,VALID,0.322359,
2004-12-23, 01:15:00,VALID,916.558,VALID,0,VALID,99.0275,VALID,0.0339617,VALID,19.1696,VALID,124,VALID,0.477134,
2004-12-23, 01:16:00,VALID,916.548,VALID,0,VALID,99.0656,VALID,0,VALID,19.1798,VALID,110,VALID,0.568576,
2004-12-23, 01:17:00,VALID,916.52,VALID,0,VALID,99.0796,VALID,0.0169808,VALID,19.18,VALID,91,VALID,0.65625,
2004-12-23, 01:18:00,VALID,916.51,VALID,0,VALID,99.161,VALID,0.0169808,VALID,19.1795,VALID,74,VALID,0.751953,
2004-12-23, 01:19:00,VALID,916.489,VALID,0,VALID,99.0389,VALID,0,VALID,19.1992,VALID,68,VALID,0.62035,
2004-12-23, 01:20:00,VALID,916.474,VALID,0,VALID,98.9346,VALID,0.0339617,VALID,19.2061,VALID,66,VALID,0.815104,
2004-12-23, 01:21:00,VALID,916.455,VALID,0,VALID,98.7973,VALID,0,VALID,19.1957,VALID,51,VALID,0.820313,
2004-12-23, 01:22:00,VALID,916.439,VALID,0,VALID,98.7248,VALID,0,VALID,19.1765,VALID,45,VALID,0.858803,
2004-12-23, 01:23:00,VALID,916.424,VALID,0,VALID,98.7236,VALID,0.0169808,VALID,19.1251,VALID,37,VALID,1.03817,
2004-12-23, 01:24:00,VALID,916.396,VALID,0,VALID,98.9296,VALID,0.0169808,VALID,19.0764,VALID,31,VALID,1.06523,
2004-12-23, 01:25:00,VALID,916.392,VALID,0,VALID,99.1419,VALID,0.0169808,VALID,19.0506,VALID,33,VALID,1.13372,
2004-12-23, 01:26:00,VALID,916.373,VALID,0,VALID,99.3161,VALID,0,VALID,19.0245,VALID,39,VALID,1.12798,
2004-12-23, 01:27:00,VALID,916.359,VALID,0,VALID,99.4395,VALID,0.0339617,VALID,19.031,VALID,42,VALID,1.05202,
2004-12-23, 01:28:00,VALID,916.347,VALID,0,VALID,99.4725,VALID,0.0169808,VALID,19.0183,VALID,52,VALID,1.12059,
2004-12-23, 01:29:00,VALID,916.341,VALID,0,VALID,99.5285,VALID,0.0169808,VALID,19.0151,VALID,57,VALID,0.99929,
2004-12-23, 01:30:00,VALID,916.333,VALID,0,VALID,99.6048,VALID,0.0169808,VALID,18.9955,VALID,57,VALID,0.908918,
2004-12-23, 01:31:00,VALID,916.324,VALID,0,VALID,99.8311,VALID,0,VALID,18.9982,VALID,57,VALID,0.947599,
2004-12-23, 01:32:00,VALID,916.312,VALID,0,VALID,99.8642,VALID,0.0339617,VALID,18.9987,VALID,57,VALID,0.846946,
2004-12-23, 01:33:00,VALID,916.305,VALID,0,VALID,99.8324,VALID,-0.0339617,VALID,18.9997,VALID,57,VALID,0.748224,
2004-12-23, 01:34:00,VALID,916.292,VALID,0,VALID,99.6747,VALID,-0.0679233,VALID,18.9937,VALID,51,VALID,0.715732,
2004-12-23, 01:35:00,VALID,916.274,VALID,0,VALID,99.4738,VALID,-0.0509425,VALID,18.9552,VALID,45,VALID,0.812691,
2004-12-23, 01:36:00,VALID,916.263,VALID,0,VALID,99.5883,VALID,-0.101885,VALID,18.903,VALID,39,VALID,0.943598,
2004-12-23, 01:37:00,VALID,916.252,VALID,0,VALID,99.7358,VALID,-0.0679233,VALID,18.8901,VALID,38,VALID,0.912997,
2004-12-23, 01:38:00,VALID,916.234,VALID,0,VALID,99.8693,VALID,-0.0849042,VALID,18.8744,VALID,25,VALID,0.734193,
2004-12-23, 01:39:00,VALID,916.22,VALID,0,VALID,99.9654,VALID,-0.0849042,VALID,18.8583,VALID,20,VALID,0.540761,
2004-12-23, 01:40:00,VALID,916.202,VALID,0,VALID,100,VALID,-0.0849042,VALID,18.8488,VALID,20,VALID,0.530869,
2004-12-23, 01:41:00,VALID,916.176,VALID,0,VALID,100,VALID,-0.0849042,VALID,18.829,VALID,20,VALID,0.338844,
2004-12-23, 01:42:00,VALID,916.167,VALID,0,VALID,100,VALID,-0.0849042,VALID,18.8387,VALID,20,VALID,0.280705,
2004-12-23, 01:43:00,VALID,916.147,VALID,0,VALID,100,VALID,-0.0849042,VALID,18.8717,VALID,20,VALID,0.238477,
2004-12-23, 01:44:00,VALID,916.126,VALID,0,VALID,100,VALID,0.0339617,VALID,18.8668,VALID,20,VALID,0.357572,
2004-12-23, 01:45:00,VALID,916.112,VALID,0,VALID,100,VALID,0,VALID,18.8566,VALID,20,VALID,0.181108,
2004-12-23, 01:46:00,VALID,916.094,VALID,0,VALID,100,VALID,0.0169808,VALID,18.8765,VALID,20,VALID,0.110647,
2004-12-23, 01:47:00,VALID,916.088,VALID,0,VALID,100,VALID,0,VALID,18.8633,VALID,20,VALID,0.116279,
2004-12-23, 01:48:00,VALID,916.072,VALID,0,VALID,100,VALID,0.0339617,VALID,18.8628,VALID,20,VALID,0.25558,
2004-12-23, 01:49:00,VALID,916.066,VALID,0,VALID,100,VALID,0.0169808,VALID,18.8636,VALID,20,VALID,0.0805432,
2004-12-23, 01:50:00,VALID,916.05,VALID,0,VALID,100,VALID,0.0339617,VALID,18.8638,VALID,20,VALID,0,
2004-12-23, 01:51:00,VALID,916.048,VALID,0,VALID,100,VALID,0.0169808,VALID,18.8472,VALID,20,VALID,0,
2004-12-23, 01:52:00,VALID,916.018,VALID,0,VALID,100,VALID,-0.0169808,VALID,18.8476,VALID,20,VALID,0,
2004-12-23, 01:53:00,VALID,916.022,VALID,0,VALID,100,VALID,0,VALID,18.8474,VALID,20,VALID,0,
2004-12-23, 01:54:00,VALID,916.01,VALID,0,VALID,100,VALID,0,VALID,18.8668,VALID,20,VALID,0,
2004-12-23, 01:55:00,VALID,916.001,VALID,0,VALID,100,VALID,0,VALID,18.8603,VALID,20,VALID,0,
2004-12-23, 01:56:00,VALID,915.991,VALID,0,VALID,100,VALID,0.0169808,VALID,18.8541,VALID,20,VALID,0,
2004-12-23, 01:57:00,VALID,915.972,VALID,0,VALID,100,VALID,0.0339617,VALID,18.8442,VALID,20,VALID,0,
2004-12-23, 01:58:00,VALID,915.965,VALID,0,VALID,100,VALID,0.0509425,VALID,18.8313,VALID,20,VALID,0,
2004-12-23, 01:59:00,VALID,915.95,VALID,0,VALID,100,VALID,0.0169808,VALID,18.8243,VALID,20,VALID,0,
2004-12-23, 02:00:00,VALID,915.936,VALID,0,VALID,100,VALID,0.0169808,VALID,18.8151,VALID,20,VALID,0,
2004-12-23, 02:01:00,VALID,915.921,VALID,0,VALID,100,VALID,0.0339617,VALID,18.8054,VALID,20,VALID,0,
2004-12-23, 02:02:00,VALID,915.897,VALID,0,VALID,100,VALID,0.0169808,VALID,18.8181,VALID,20,VALID,0,
2004-12-23, 02:03:00,VALID,915.887,VALID,0,VALID,100,VALID,0.0169808,VALID,18.802,VALID,20,VALID,0,
2004-12-23, 02:04:00,VALID,915.876,VALID,0,VALID,99.9339,VALID,0.0339617,VALID,18.7568,VALID,20,VALID,0,
2004-12-23, 02:05:00,VALID,915.866,VALID,0,VALID,99.8286,VALID,0.0509425,VALID,18.7277,VALID,20,VALID,0,
2004-12-23, 02:06:00,VALID,915.85,VALID,0,VALID,99.8121,VALID,0.0169808,VALID,18.7049,VALID,20,VALID,0,
2004-12-23, 02:07:00,VALID,915.832,VALID,0,VALID,99.8845,VALID,0,VALID,18.7023,VALID,20,VALID,0,
2004-12-23, 02:08:00,VALID,915.815,VALID,0,VALID,99.9529,VALID,0,VALID,18.6957,VALID,20,VALID,0,
2004-12-23, 02:09:00,VALID,915.809,VALID,0,VALID,100,VALID,0.0339617,VALID,18.6857,VALID,20,VALID,0.173549,
2004-12-23, 02:10:00,VALID,915.804,VALID,0,VALID,99.9957,VALID,0.0509425,VALID,18.6827,VALID,20,VALID,0.329942,
2004-12-23, 02:11:00,VALID,915.784,VALID,0,VALID,100,VALID,0.0339617,VALID,18.7272,VALID,20,VALID,0.198437,
2004-12-23, 02:12:00,VALID,915.779,VALID,0,VALID,100,VALID,0.0169808,VALID,18.7893,VALID,13,VALID,0.318788,
2004-12-23, 02:13:00,VALID,915.767,VALID,0,VALID,100,VALID,0.0339617,VALID,18.8343,VALID,11,VALID,0.050327,
2004-12-23, 02:14:00,VALID,915.759,VALID,0,VALID,100,VALID,0,VALID,18.8439,VALID,11,VALID,0,
2004-12-23, 02:15:00,VALID,915.762,VALID,0,VALID,100,VALID,0.0509425,VALID,18.8599,VALID,11,VALID,0,
2004-12-23, 02:16:00,VALID,915.753,VALID,0,VALID,100,VALID,0.0679233,VALID,18.8693,VALID,11,VALID,0,
2004-12-23, 02:17:00,VALID,915.755,VALID,0,VALID,100,VALID,0.0169808,VALID,18.8765,VALID,11,VALID,0.0885417,
2004-12-23, 02:18:00,VALID,915.752,VALID,0,VALID,100,VALID,-0.0509425,VALID,18.8615,VALID,11,VALID,0.376598,
2004-12-23, 02:19:00,VALID,915.749,VALID,0,VALID,100,VALID,-0.101885,VALID,18.8394,VALID,63,VALID,0.513148,
2004-12-23, 02:20:00,VALID,915.74,VALID,0,VALID,100,VALID,-0.0849042,VALID,18.8329,VALID,170,VALID,0.717448,
2004-12-23, 02:21:00,VALID,915.731,VALID,0,VALID,100,VALID,-0.0679233,VALID,18.8163,VALID,179,VALID,0.443859,
2004-12-23, 02:22:00,VALID,915.723,VALID,0,VALID,100,VALID,-0.0849042,VALID,18.8029,VALID,179,VALID,0.22168,
2004-12-23, 02:23:00,VALID,915.722,VALID,0,VALID,100,VALID,-0.101885,VALID,18.8069,VALID,179,VALID,0.0208939,
2004-12-23, 02:24:00,VALID,915.714,VALID,0,VALID,100,VALID,-0.0849042,VALID,18.8232,VALID,179,VALID,0,
2004-12-23, 02:25:00,VALID,915.692,VALID,0,VALID,100,VALID,-0.0849042,VALID,18.859,VALID,179,VALID,0,
2004-12-23, 02:26:00,VALID,915.669,VALID,0,VALID,100,VALID,-0.0849042,VALID,18.8807,VALID,179,VALID,0,
2004-12-23, 02:27:00,VALID,915.658,VALID,0,VALID,100,VALID,-0.0849042,VALID,18.9201,VALID,179,VALID,0,
2004-12-23, 02:28:00,VALID,915.637,VALID,0,VALID,100,VALID,-0.101885,VALID,18.9497,VALID,179,VALID,0,
2004-12-23, 02:29:00,VALID,915.605,VALID,0,VALID,100,VALID,-0.101885,VALID,18.9658,VALID,179,VALID,0,
2004-12-23, 02:30:00,VALID,915.583,VALID,0,VALID,100,VALID,-0.101885,VALID,18.9623,VALID,179,VALID,0.0680804,
2004-12-23, 02:31:00,VALID,915.558,VALID,0,VALID,100,VALID,-0.0849042,VALID,18.9589,VALID,179,VALID,0.426417,
2004-12-23, 02:32:00,VALID,915.533,VALID,0,VALID,100,VALID,-0.101885,VALID,18.9293,VALID,162,VALID,0.501272,
2004-12-23, 02:33:00,VALID,915.51,VALID,0,VALID,100,VALID,-0.0509425,VALID,18.9226,VALID,156,VALID,0.272321,
2004-12-23, 02:34:00,VALID,915.485,VALID,0,VALID,100,VALID,-0.0169808,VALID,18.9224,VALID,142,VALID,0.506288,
2004-12-23, 02:35:00,VALID,915.469,VALID,0,VALID,100,VALID,0,VALID,18.9159,VALID,143,VALID,0.609375,
2004-12-23, 02:36:00,VALID,915.452,VALID,0,VALID,100,VALID,-0.0169808,VALID,18.909,VALID,147,VALID,0.601918,
2004-12-23, 02:37:00,VALID,915.451,VALID,0,VALID,100,VALID,-0.0339617,VALID,18.9092,VALID,171,VALID,0.476064,
2004-12-23, 02:38:00,VALID,915.434,VALID,0,VALID,100,VALID,0,VALID,18.8929,VALID,171,VALID,0.43608,
2004-12-23, 02:39:00,VALID,915.407,VALID,0,VALID,100,VALID,-0.0169808,VALID,18.8836,VALID,171,VALID,0.448038,
2004-12-23, 02:40:00,VALID,915.39,VALID,0,VALID,100,VALID,0,VALID,18.8737,VALID,156,VALID,0.459302,
2004-12-23, 02:41:00,VALID,915.377,VALID,0,VALID,100,VALID,-0.0169808,VALID,18.8543,VALID,152,VALID,0.350836,
2004-12-23, 02:42:00,VALID,915.354,VALID,0,VALID,100,VALID,0,VALID,18.8479,VALID,152,VALID,0.190341,
2004-12-23, 02:43:00,VALID,915.357,VALID,0,VALID,100,VALID,-0.0339617,VALID,18.861,VALID,152,VALID,0.00837054,
2004-12-23, 02:44:00,VALID,915.331,VALID,0,VALID,100,VALID,-0.0169808,VALID,18.8675,VALID,152,VALID,0.0502486,
2004-12-23, 02:45:00,VALID,915.329,VALID,0,VALID,100,VALID,-0.0339617,VALID,18.8643,VALID,152,VALID,0.205543,
2004-12-23, 02:46:00,VALID,915.33,VALID,0,VALID,100,VALID,0,VALID,18.8511,VALID,152,VALID,0.251272,
2004-12-23, 02:47:00,VALID,915.318,VALID,0,VALID,100,VALID,0,VALID,18.838,VALID,153,VALID,0.297894,
2004-12-23, 02:48:00,VALID,915.329,VALID,0,VALID,100,VALID,0,VALID,18.8707,VALID,153,VALID,0.126776,
2004-12-23, 02:49:00,VALID,915.332,VALID,0,VALID,100,VALID,0,VALID,18.8802,VALID,153,VALID,0.0770597,
2004-12-23, 02:50:00,VALID,915.338,VALID,0,VALID,100,VALID,0,VALID,18.8929,VALID,153,VALID,0.0138494,
2004-12-23, 02:51:00,VALID,915.336,VALID,0,VALID,100,VALID,-0.0169808,VALID,18.8931,VALID,153,VALID,0.00347222,
2004-12-23, 02:52:00,VALID,915.342,VALID,0,VALID,100,VALID,0,VALID,18.8901,VALID,153,VALID,0.0663194,
2004-12-23, 02:53:00,VALID,915.331,VALID,0,VALID,100,VALID,-0.0339617,VALID,18.871,VALID,153,VALID,0.125,
2004-12-23, 02:54:00,VALID,915.329,VALID,0,VALID,100,VALID,-0.0509425,VALID,18.835,VALID,153,VALID,0.0328852,
2004-12-23, 02:55:00,VALID,915.332,VALID,0,VALID,100,VALID,-0.0339617,VALID,18.8193,VALID,153,VALID,0.0807292,
2004-12-23, 02:56:00,VALID,915.335,VALID,0,VALID,100,VALID,-0.0169808,VALID,18.8027,VALID,153,VALID,0.122569,
2004-12-23, 02:57:00,VALID,915.327,VALID,0,VALID,100,VALID,0,VALID,18.7967,VALID,153,VALID,0.205305,
2004-12-23, 02:58:00,VALID,915.336,VALID,0,VALID,100,VALID,-0.0339617,VALID,18.7766,VALID,153,VALID,0,
2004-12-23, 02:59:00,VALID,915.323,VALID,0,VALID,100,VALID,-0.0509425,VALID,18.7706,VALID,153,VALID,0,
2004-12-23, 03:00:00,VALID,915.33,VALID,0,VALID,100,VALID,-0.0169808,VALID,18.7577,VALID,153,VALID,0,
2004-12-23, 03:01:00,VALID,915.32,VALID,0,VALID,100,VALID,0,VALID,18.7416,VALID,153,VALID,0,
2004-12-23, 03:02:00,VALID,915.324,VALID,0,VALID,100,VALID,-0.0169808,VALID,18.7351,VALID,153,VALID,0,
2004-12-23, 03:03:00,VALID,915.317,VALID,0,VALID,100,VALID,0,VALID,18.7224,VALID,153,VALID,0,
2004-12-23, 03:04:00,VALID,915.314,VALID,0,VALID,100,VALID,0,VALID,18.7123,VALID,153,VALID,0,
2004-12-23, 03:05:00,VALID,915.313,VALID,0,VALID,100,VALID,0,VALID,18.6959,VALID,153,VALID,0,
2004-12-23, 03:06:00,VALID,915.31,VALID,0,VALID,100,VALID,0.0169808,VALID,18.6996,VALID,153,VALID,0,
2004-12-23, 03:07:00,VALID,915.307,VALID,0,VALID,100,VALID,-0.0169808,VALID,18.6832,VALID,153,VALID,0,
2004-12-23, 03:08:00,VALID,915.295,VALID,0,VALID,100,VALID,0,VALID,18.6539,VALID,153,VALID,0,
2004-12-23, 03:09:00,VALID,915.304,VALID,0,VALID,100,VALID,-0.0169808,VALID,18.6219,VALID,153,VALID,0,
2004-12-23, 03:10:00,VALID,915.284,VALID,0,VALID,100,VALID,0,VALID,18.5993,VALID,153,VALID,0,
2004-12-23, 03:11:00,VALID,915.293,VALID,0,VALID,100,VALID,0,VALID,18.5767,VALID,153,VALID,0,
2004-12-23, 03:12:00,VALID,915.284,VALID,0,VALID,100,VALID,0,VALID,18.5508,VALID,153,VALID,0.0176235,
2004-12-23, 03:13:00,VALID,915.276,VALID,0,VALID,100,VALID,0,VALID,18.5444,VALID,149,VALID,0.357143,
2004-12-23, 03:14:00,VALID,915.256,VALID,0,VALID,100,VALID,0,VALID,18.5764,VALID,148,VALID,0.456445,
2004-12-23, 03:15:00,VALID,915.261,VALID,0,VALID,100,VALID,-0.0169808,VALID,18.632,VALID,121,VALID,0.688743,
2004-12-23, 03:16:00,VALID,915.245,VALID,0,VALID,100,VALID,0,VALID,18.6772,VALID,116,VALID,0.829033,
2004-12-23, 03:17:00,VALID,915.224,VALID,0,VALID,100,VALID,0,VALID,18.6802,VALID,112,VALID,0.85556,
2004-12-23, 03:18:00,VALID,915.203,VALID,0,VALID,100,VALID,0,VALID,18.6574,VALID,104,VALID,0.931996,
2004-12-23, 03:19:00,VALID,915.198,VALID,0,VALID,100,VALID,0,VALID,18.6447,VALID,103,VALID,1.02511,
2004-12-23, 03:20:00,VALID,915.184,VALID,0,VALID,100,VALID,-0.0169808,VALID,18.6738,VALID,103,VALID,0.939317,
2004-12-23, 03:21:00,VALID,915.172,VALID,0,VALID,100,VALID,0.0169808,VALID,18.6936,VALID,100,VALID,0.911399,
2004-12-23, 03:22:00,VALID,915.179,VALID,0,VALID,100,VALID,0,VALID,18.68,VALID,91,VALID,0.866443,
2004-12-23, 03:23:00,VALID,915.174,VALID,0,VALID,100,VALID,0,VALID,18.6834,VALID,86,VALID,0.93733,
2004-12-23, 03:24:00,VALID,915.157,VALID,0,VALID,100,VALID,0.0169808,VALID,18.6961,VALID,83,VALID,0.836846,
2004-12-23, 03:25:00,VALID,915.148,VALID,0,VALID,100,VALID,-0.0169808,VALID,18.7125,VALID,77,VALID,0.803199,
2004-12-23, 03:26:00,VALID,915.14,VALID,0,VALID,100,VALID,0,VALID,18.7153,VALID,74,VALID,0.801562,
2004-12-23, 03:27:00,VALID,915.148,VALID,0,VALID,100,VALID,0,VALID,18.7123,VALID,62,VALID,1.05098,
2004-12-23, 03:28:00,VALID,915.157,VALID,0,VALID,100,VALID,0,VALID,18.7249,VALID,67,VALID,1.03161,
2004-12-23, 03:29:00,VALID,915.162,VALID,0,VALID,100,VALID,0.0169808,VALID,18.7284,VALID,72,VALID,0.904251,
2004-12-23, 03:30:00,VALID,915.163,VALID,0,VALID,100,VALID,-0.0169808,VALID,18.7284,VALID,76,VALID,0.85766,
2004-12-23, 03:31:00,VALID,915.175,VALID,0,VALID,100,VALID,-0.0169808,VALID,18.7257,VALID,84,VALID,0.784054,
2004-12-23, 03:32:00,VALID,915.151,VALID,0,VALID,100,VALID,0,VALID,18.706,VALID,84,VALID,0.847565,
2004-12-23, 03:33:00,VALID,915.155,VALID,0,VALID,100,VALID,-0.0169808,VALID,18.6735,VALID,70,VALID,0.713605,
2004-12-23, 03:34:00,VALID,915.131,VALID,0,VALID,100,VALID,-0.0339617,VALID,18.6417,VALID,66,VALID,0.701219,
2004-12-23, 03:35:00,VALID,915.119,VALID,0,VALID,100,VALID,-0.0339617,VALID,18.6064,VALID,62,VALID,0.742014,
2004-12-23, 03:36:00,VALID,915.101,VALID,0,VALID,100,VALID,0,VALID,18.5697,VALID,61,VALID,0.647321,
2004-12-23, 03:37:00,VALID,915.081,VALID,0,VALID,100,VALID,-0.0169808,VALID,18.5803,VALID,67,VALID,0.644922,
2004-12-23, 03:38:00,VALID,915.062,VALID,0,VALID,100,VALID,-0.0169808,VALID,18.5732,VALID,72,VALID,0.692522,